Time,TemperatureF,DewpointF,PressureIn,WindDirection,WindDirectionDegrees,WindSpeedMPH,WindSpeedGustMPH,Humidity,HourlyPrecipIn,Conditions,Clouds,dailyrainin,SoftwareType,DateUTC
2013-02-28 00:00:00,30.1,29.4,29.91,NNW,338,4.0,5.0,97,0.00,,,0.00,Wunderground v.1.15,2013-02-28 06:00:00,
2013-02-28 00:05:00,30.1,29.4,29.92,NNW,329,4.0,5.0,97,0.00,,,0.00,Wunderground v.1.15,2013-02-28 06:05:00,
2013-02-28 00:15:00,30.1,29.4,29.91,NW,321,4.0,5.0,97,0.00,,,0.00,Wunderground v.1.15,2013-02-28 06:15:00,
2013-02-28 00:20:00,30.1,29.4,29.91,North,9,4.0,4.0,97,0.00,,,0.00,Wunderground v.1.15,2013-02-28 06:20:00,
2013-02-28 00:25:00,30.1,29.4,29.91,NNW,327,4.0,6.0,97,0.00,,,0.00,Wunderground v.1.15,2013-02-28 06:25:00,
2013-02-28 00:30:00,30.1,29.4,29.92,NNW,333,4.0,4.0,97,0.00,,,0.00,Wunderground v.1.15,2013-02-28 06:30:00,
2013-02-28 00:35:00,30.2,29.5,29.92,NNW,337,4.0,6.0,97,0.00,,,0.00,Wunderground v.1.15,2013-02-28 06:35:00,
2013-02-28 00:45:00,30.3,29.6,29.92,NW,315,5.0,7.0,97,0.00,,,0.00,Wunderground v.1.15,2013-02-28 06:45:00,
2013-02-28 00:50:00,30.3,29.6,29.92,NNW,328,5.0,6.0,97,0.00,,,0.00,Wunderground v.1.15,2013-02-28 06:50:00,
2013-02-28 00:55:00,30.3,29.6,29.93,NNW,348,5.0,6.0,97,0.00,,,0.00,Wunderground v.1.15,2013-02-28 06:55:00,
2013-02-28 01:00:00,30.4,29.7,29.92,NNW,340,4.0,5.0,97,0.00,,,0.00,Wunderground v.1.15,2013-02-28 07:00:00,
2013-02-28 01:05:00,30.4,29.7,29.93,NW,317,4.0,5.0,97,0.00,,,0.00,Wunderground v.1.15,2013-02-28 07:05:00,
2013-02-28 01:15:00,30.4,29.7,29.93,NW,326,5.0,6.0,97,0.00,,,0.00,Wunderground v.1.15,2013-02-28 07:15:00,
2013-02-28 01:20:00,30.5,29.8,29.93,NNW,338,4.0,4.0,97,0.00,,,0.00,Wunderground v.1.15,2013-02-28 07:20:00,
2013-02-28 01:25:00,30.5,29.8,29.93,NW,325,4.0,4.0,97,0.00,,,0.00,Wunderground v.1.15,2013-02-28 07:25:00,
2013-02-28 01:35:00,30.5,29.8,29.94,NNW,329,3.0,4.0,97,0.00,,,0.00,Wunderground v.1.15,2013-02-28 07:35:00,
2013-02-28 01:40:00,30.5,29.8,29.94,NNW,345,3.0,5.0,97,0.00,,,0.00,Wunderground v.1.15,2013-02-28 07:40:00,
2013-02-28 01:45:00,30.5,29.8,29.93,North,355,4.0,5.0,97,0.00,,,0.00,Wunderground v.1.15,2013-02-28 07:45:00,
2013-02-28 01:50:00,30.5,29.8,29.93,North,355,5.0,7.0,97,0.00,,,0.00,Wunderground v.1.15,2013-02-28 07:50:00,
2013-02-28 01:55:00,30.5,29.8,29.93,NNW,329,5.0,7.0,97,0.00,,,0.00,Wunderground v.1.15,2013-02-28 07:55:00,
2013-02-28 02:00:00,30.5,29.8,29.93,NNW,343,5.0,5.0,97,0.00,,,0.00,Wunderground v.1.15,2013-02-28 08:00:00,
2013-02-28 02:05:00,30.5,29.8,29.93,NNW,333,5.0,5.0,97,0.00,,,0.00,Wunderground v.1.15,2013-02-28 08:05:00,
2013-02-28 02:15:00,30.5,29.8,29.93,NNW,341,4.0,6.0,97,0.00,,,0.00,Wunderground v.1.15,2013-02-28 08:15:00,
2013-02-28 02:20:00,30.5,29.8,29.93,NNW,336,4.0,8.0,97,0.00,,,0.00,Wunderground v.1.15,2013-02-28 08:20:00,
2013-02-28 02:25:00,30.5,29.8,29.94,North,355,5.0,8.0,97,0.00,,,0.00,Wunderground v.1.15,2013-02-28 08:25:00,
2013-02-28 02:35:00,30.5,29.8,29.94,NW,304,4.0,4.0,97,0.00,,,0.00,Wunderground v.1.15,2013-02-28 08:35:00,
2013-02-28 02:40:00,30.5,29.8,29.94,North,355,4.0,4.0,97,0.00,,,0.00,Wunderground v.1.15,2013-02-28 08:40:00,
2013-02-28 02:45:00,30.5,29.8,29.95,NNW,331,4.0,6.0,97,0.00,,,0.00,Wunderground v.1.15,2013-02-28 08:45:00,
2013-02-28 02:50:00,30.4,29.7,29.94,NNW,331,5.0,5.0,97,0.00,,,0.00,Wunderground v.1.15,2013-02-28 08:50:00,
2013-02-28 02:55:00,30.4,29.7,29.95,NNW,345,5.0,7.0,97,0.00,,,0.00,Wunderground v.1.15,2013-02-28 08:55:00,
2013-02-28 03:00:00,30.4,29.7,29.95,NNW,329,5.0,5.0,97,0.00,,,0.00,Wunderground v.1.15,2013-02-28 09:00:00,
2013-02-28 03:05:00,30.4,29.7,29.95,NW,322,4.0,8.0,97,0.00,,,0.00,Wunderground v.1.15,2013-02-28 09:05:00,
2013-02-28 03:15:00,30.4,29.7,29.95,NNW,329,5.0,6.0,97,0.00,,,0.00,Wunderground v.1.15,2013-02-28 09:15:00,
2013-02-28 03:20:00,30.4,29.7,29.96,North,350,5.0,6.0,97,0.00,,,0.00,Wunderground v.1.15,2013-02-28 09:20:00,
2013-02-28 03:25:00,30.3,29.6,29.96,NNW,333,5.0,6.0,97,0.00,,,0.00,Wunderground v.1.15,2013-02-28 09:25:00,
2013-02-28 03:35:00,30.3,29.6,29.96,North,355,5.0,8.0,97,0.00,,,0.00,Wunderground v.1.15,2013-02-28 09:35:00,
2013-02-28 03:40:00,30.3,29.6,29.96,NNW,335,5.0,5.0,97,0.00,,,0.00,Wunderground v.1.15,2013-02-28 09:40:00,
2013-02-28 03:45:00,30.2,29.5,29.96,NNW,328,5.0,5.0,97,0.00,,,0.00,Wunderground v.1.15,2013-02-28 09:45:00,
2013-02-28 03:50:00,30.2,29.5,29.96,NW,313,4.0,5.0,97,0.00,,,0.00,Wunderground v.1.15,2013-02-28 09:50:00,
2013-02-28 03:55:00,30.1,29.4,29.96,NNW,329,5.0,5.0,97,0.00,,,0.00,Wunderground v.1.15,2013-02-28 09:55:00,
2013-02-28 04:00:00,30.1,29.4,29.96,NNW,336,5.0,5.0,97,0.00,,,0.00,Wunderground v.1.15,2013-02-28 10:00:00,
2013-02-28 04:05:00,30.1,29.4,29.97,North,355,5.0,6.0,97,0.00,,,0.00,Wunderground v.1.15,2013-02-28 10:05:00,
2013-02-28 04:15:00,30.0,29.3,29.97,NNW,336,4.0,6.0,97,0.00,,,0.00,Wunderground v.1.15,2013-02-28 10:15:00,
2013-02-28 04:20:00,29.9,29.2,29.97,NNW,338,4.0,4.0,97,0.00,,,0.00,Wunderground v.1.15,2013-02-28 10:20:00,
2013-02-28 04:25:00,29.9,29.2,29.98,NNW,336,4.0,4.0,97,0.00,,,0.00,Wunderground v.1.15,2013-02-28 10:25:00,
2013-02-28 04:30:00,29.8,29.1,29.98,North,355,4.0,6.0,97,0.00,,,0.00,Wunderground v.1.15,2013-02-28 10:30:00,
2013-02-28 04:40:00,29.8,29.1,29.98,NNW,344,4.0,4.0,97,0.00,,,0.00,Wunderground v.1.15,2013-02-28 10:40:00,
2013-02-28 04:45:00,29.7,29.0,29.98,NW,326,4.0,4.0,97,0.00,,,0.00,Wunderground v.1.15,2013-02-28 10:45:00,
2013-02-28 04:50:00,29.7,29.0,29.99,North,350,3.0,8.0,97,0.00,,,0.00,Wunderground v.1.15,2013-02-28 10:50:00,
2013-02-28 04:55:00,29.6,28.9,29.99,North,350,4.0,8.0,97,0.00,,,0.00,Wunderground v.1.15,2013-02-28 10:55:00,
2013-02-28 05:05:00,29.6,28.9,29.99,NNW,339,5.0,5.0,97,0.00,,,0.00,Wunderground v.1.15,2013-02-28 11:05:00,
2013-02-28 05:15:00,29.6,28.9,29.99,North,355,4.0,8.0,97,0.00,,,0.00,Wunderground v.1.15,2013-02-28 11:15:00,
2013-02-28 05:20:00,29.6,28.9,30.00,NNW,345,4.0,5.0,97,0.00,,,0.00,Wunderground v.1.15,2013-02-28 11:20:00,
2013-02-28 05:25:00,29.6,28.9,30.00,NNW,333,4.0,5.0,97,0.00,,,0.00,Wunderground v.1.15,2013-02-28 11:25:00,
2013-02-28 05:30:00,29.6,28.9,30.00,NNW,338,3.0,3.0,97,0.00,,,0.00,Wunderground v.1.15,2013-02-28 11:30:00,
2013-02-28 05:35:00,29.6,28.9,30.00,NNW,334,4.0,4.0,97,0.00,,,0.00,Wunderground v.1.15,2013-02-28 11:35:00,
2013-02-28 05:40:00,29.6,28.9,30.00,North,350,4.0,4.0,97,0.00,,,0.00,Wunderground v.1.15,2013-02-28 11:40:00,
2013-02-28 05:50:00,29.6,28.9,30.00,NW,319,4.0,4.0,97,0.00,,,0.00,Wunderground v.1.15,2013-02-28 11:50:00,
2013-02-28 05:59:00,29.6,28.9,30.00,NNW,333,3.0,4.0,97,0.00,,,0.00,Wunderground v.1.15,2013-02-28 11:59:00,
2013-02-28 06:05:00,29.6,28.9,30.01,NNW,337,3.0,4.0,97,0.00,,,0.00,Wunderground v.1.15,2013-02-28 12:05:00,
2013-02-28 06:15:00,29.6,28.9,30.01,NNW,341,3.0,4.0,97,0.00,,,0.00,Wunderground v.1.15,2013-02-28 12:15:00,
2013-02-28 06:20:00,29.5,28.8,30.01,NNW,338,3.0,3.0,97,0.00,,,0.00,Wunderground v.1.15,2013-02-28 12:20:00,
2013-02-28 06:25:00,29.5,28.8,30.02,NNW,338,3.0,3.0,97,0.00,,,0.00,Wunderground v.1.15,2013-02-28 12:25:00,
2013-02-28 06:30:00,29.5,28.8,30.02,NW,325,4.0,5.0,97,0.00,,,0.00,Wunderground v.1.15,2013-02-28 12:30:00,
2013-02-28 06:40:00,29.5,28.8,30.02,NNW,330,5.0,6.0,97,0.00,,,0.00,Wunderground v.1.15,2013-02-28 12:40:00,
2013-02-28 06:50:00,29.5,28.8,30.03,NNW,344,4.0,4.0,97,0.00,,,0.00,Wunderground v.1.15,2013-02-28 12:50:00,
2013-02-28 07:00:00,29.4,28.7,30.03,NNW,328,4.0,4.0,97,0.00,,,0.00,Wunderground v.1.15,2013-02-28 13:00:00,
2013-02-28 07:05:00,29.4,28.7,30.03,NW,321,4.0,6.0,97,0.00,,,0.00,Wunderground v.1.15,2013-02-28 13:05:00,
2013-02-28 07:15:00,29.4,28.7,30.04,North,5,4.0,6.0,97,0.00,,,0.00,Wunderground v.1.15,2013-02-28 13:15:00,
2013-02-28 07:20:00,29.4,28.7,30.04,NNW,331,4.0,4.0,97,0.00,,,0.00,Wunderground v.1.15,2013-02-28 13:20:00,
2013-02-28 07:25:00,29.4,28.7,30.04,North,355,4.0,4.0,97,0.00,,,0.00,Wunderground v.1.15,2013-02-28 13:25:00,
2013-02-28 07:30:00,29.5,28.8,30.05,NW,323,4.0,5.0,97,0.00,,,0.00,Wunderground v.1.15,2013-02-28 13:30:00,
2013-02-28 07:35:00,29.5,28.8,30.05,NNW,348,4.0,5.0,97,0.00,,,0.00,Wunderground v.1.15,2013-02-28 13:35:00,
2013-02-28 07:40:00,29.5,28.8,30.05,NNW,333,4.0,4.0,97,0.00,,,0.00,Wunderground v.1.15,2013-02-28 13:40:00,
2013-02-28 07:50:00,29.5,28.8,30.05,NW,321,4.0,4.0,97,0.00,,,0.00,Wunderground v.1.15,2013-02-28 13:50:00,
2013-02-28 07:55:00,29.5,28.8,30.05,NNW,340,4.0,4.0,97,0.00,,,0.00,Wunderground v.1.15,2013-02-28 13:55:00,
2013-02-28 08:00:00,29.6,28.9,30.06,NNW,344,4.0,4.0,97,0.00,,,0.00,Wunderground v.1.15,2013-02-28 14:00:00,
2013-02-28 08:05:00,29.6,28.9,30.06,North,360,4.0,4.0,97,0.00,,,0.00,Wunderground v.1.15,2013-02-28 14:05:00,
2013-02-28 08:15:00,29.7,29.0,30.06,NNW,333,4.0,5.0,97,0.00,,,0.00,Wunderground v.1.15,2013-02-28 14:15:00,
2013-02-28 08:20:00,29.8,29.1,30.06,NNW,343,5.0,5.0,97,0.00,,,0.00,Wunderground v.1.15,2013-02-28 14:20:00,
2013-02-28 08:25:00,29.8,29.1,30.06,NNW,341,4.0,5.0,97,0.00,,,0.00,Wunderground v.1.15,2013-02-28 14:25:00,
2013-02-28 08:30:00,29.9,29.2,30.06,NNW,340,4.0,4.0,97,0.00,,,0.00,Wunderground v.1.15,2013-02-28 14:30:00,
2013-02-28 08:35:00,30.1,29.4,30.07,North,349,4.0,4.0,97,0.00,,,0.00,Wunderground v.1.15,2013-02-28 14:35:00,
2013-02-28 08:40:00,30.2,29.5,30.07,NNW,337,4.0,5.0,97,0.00,,,0.00,Wunderground v.1.15,2013-02-28 14:40:00,
2013-02-28 08:49:00,30.3,29.6,30.07,NNW,327,4.0,4.0,97,0.00,,,0.00,Wunderground v.1.15,2013-02-28 14:49:00,
2013-02-28 08:55:00,30.4,29.7,30.07,North,355,4.0,4.0,97,0.00,,,0.00,Wunderground v.1.15,2013-02-28 14:55:00,
2013-02-28 09:05:00,30.6,29.9,30.07,NNW,327,5.0,5.0,97,0.00,,,0.01,Wunderground v.1.15,2013-02-28 15:05:00,
2013-02-28 09:15:00,30.8,30.0,30.07,North,350,5.0,6.0,97,0.00,,,0.01,Wunderground v.1.15,2013-02-28 15:15:00,
2013-02-28 09:25:00,30.9,30.1,30.08,North,360,5.0,5.0,97,0.00,,,0.01,Wunderground v.1.15,2013-02-28 15:25:00,
2013-02-28 09:30:00,30.9,30.1,30.08,North,5,6.0,10.0,97,0.00,,,0.01,Wunderground v.1.15,2013-02-28 15:30:00,
2013-02-28 09:35:00,30.9,30.1,30.08,NNW,327,7.0,10.0,97,0.00,,,0.01,Wunderground v.1.15,2013-02-28 15:35:00,
2013-02-28 09:40:00,30.9,30.1,30.08,NNW,328,7.0,7.0,97,0.00,,,0.01,Wunderground v.1.15,2013-02-28 15:40:00,
2013-02-28 09:45:00,31.0,30.2,30.09,WNW,302,6.0,7.0,97,0.00,,,0.01,Wunderground v.1.15,2013-02-28 15:45:00,
2013-02-28 09:50:00,31.0,30.2,30.09,NNW,339,5.0,5.0,97,0.00,,,0.01,Wunderground v.1.15,2013-02-28 15:50:00,
2013-02-28 09:55:00,31.0,30.2,30.09,NNW,327,6.0,7.0,97,0.00,,,0.02,Wunderground v.1.15,2013-02-28 15:55:00,
2013-02-28 10:05:00,31.1,30.1,30.09,NNW,344,6.0,10.0,96,0.00,,,0.02,Wunderground v.1.15,2013-02-28 16:05:00,
2013-02-28 10:15:00,31.1,30.1,30.09,North,355,6.0,6.0,96,0.00,,,0.02,Wunderground v.1.15,2013-02-28 16:15:00,
2013-02-28 10:20:00,31.1,30.1,30.10,NNW,345,6.0,6.0,96,0.00,,,0.02,Wunderground v.1.15,2013-02-28 16:20:00,
2013-02-28 10:25:00,31.1,30.1,30.10,NNE,14,5.0,6.0,96,0.00,,,0.02,Wunderground v.1.15,2013-02-28 16:25:00,
2013-02-28 10:35:00,31.1,30.1,30.10,NNW,340,5.0,5.0,96,0.00,,,0.02,Wunderground v.1.15,2013-02-28 16:35:00,
2013-02-28 10:40:00,31.2,30.2,30.10,NNW,339,5.0,5.0,96,0.00,,,0.02,Wunderground v.1.15,2013-02-28 16:40:00,
2013-02-28 10:50:00,31.2,30.2,30.10,North,355,6.0,6.0,96,0.00,,,0.02,Wunderground v.1.15,2013-02-28 16:50:00,
2013-02-28 10:55:00,31.2,30.2,30.11,NNW,331,6.0,6.0,96,0.00,,,0.02,Wunderground v.1.15,2013-02-28 16:55:00,
2013-02-28 11:05:00,31.1,30.3,30.11,NNW,340,7.0,10.0,97,0.00,,,0.03,Wunderground v.1.15,2013-02-28 17:05:00,
2013-02-28 11:15:00,31.2,30.4,30.11,NW,321,5.0,7.0,97,0.00,,,0.03,Wunderground v.1.15,2013-02-28 17:15:00,
2013-02-28 11:20:00,31.2,30.4,30.11,North,355,4.0,7.0,97,0.00,,,0.03,Wunderground v.1.15,2013-02-28 17:20:00,
2013-02-28 11:25:00,31.2,30.4,30.11,NNW,348,5.0,7.0,97,0.00,,,0.03,Wunderground v.1.15,2013-02-28 17:25:00,
2013-02-28 11:35:00,31.2,30.4,30.11,NNE,16,5.0,8.0,97,0.00,,,0.03,Wunderground v.1.15,2013-02-28 17:35:00,
2013-02-28 11:40:00,31.2,30.4,30.12,NW,320,5.0,5.0,97,0.00,,,0.03,Wunderground v.1.15,2013-02-28 17:40:00,
2013-02-28 11:45:00,31.3,30.5,30.12,North,360,6.0,6.0,97,0.00,,,0.03,Wunderground v.1.15,2013-02-28 17:45:00,
2013-02-28 11:50:00,31.4,30.6,30.11,NNW,337,5.0,6.0,97,0.00,,,0.03,Wunderground v.1.15,2013-02-28 17:50:00,
2013-02-28 11:55:00,31.5,30.7,30.11,NW,323,4.0,6.0,97,0.00,,,0.03,Wunderground v.1.15,2013-02-28 17:55:00,
2013-02-28 12:00:00,31.5,30.7,30.11,NNW,329,5.0,6.0,97,0.00,,,0.03,Wunderground v.1.15,2013-02-28 18:00:00,
2013-02-28 12:05:00,31.5,30.7,30.11,NNW,344,6.0,7.0,97,0.00,,,0.03,Wunderground v.1.15,2013-02-28 18:05:00,
2013-02-28 12:15:00,31.5,30.7,30.11,North,355,6.0,7.0,97,0.00,,,0.03,Wunderground v.1.15,2013-02-28 18:15:00,
2013-02-28 12:20:00,31.6,30.8,30.11,North,355,6.0,6.0,97,0.00,,,0.03,Wunderground v.1.15,2013-02-28 18:20:00,
2013-02-28 12:30:00,31.7,30.9,30.11,North,11,5.0,5.0,97,0.00,,,0.03,Wunderground v.1.15,2013-02-28 18:30:00,
2013-02-28 12:35:00,31.7,30.9,30.11,NNE,14,5.0,5.0,97,0.00,,,0.03,Wunderground v.1.15,2013-02-28 18:35:00,
2013-02-28 12:40:00,31.9,31.1,30.10,North,5,4.0,4.0,97,0.00,,,0.03,Wunderground v.1.15,2013-02-28 18:40:00,
2013-02-28 12:45:00,31.7,30.9,30.10,North,355,5.0,9.0,97,0.00,,,0.03,Wunderground v.1.15,2013-02-28 18:45:00,
2013-02-28 12:50:00,31.7,30.9,30.10,NW,314,6.0,7.0,97,0.00,,,0.03,Wunderground v.1.15,2013-02-28 18:50:00,
2013-02-28 13:00:00,31.6,30.8,30.11,NNW,347,5.0,8.0,97,0.00,,,0.03,Wunderground v.1.15,2013-02-28 19:00:00,
2013-02-28 13:05:00,31.5,30.7,30.11,NNW,329,6.0,8.0,97,0.00,,,0.03,Wunderground v.1.15,2013-02-28 19:05:00,
2013-02-28 13:15:00,31.5,30.7,30.11,NNW,327,5.0,9.0,97,0.00,,,0.03,Wunderground v.1.15,2013-02-28 19:15:00,
2013-02-28 13:20:00,31.5,30.7,30.11,NNW,332,5.0,5.0,97,0.00,,,0.03,Wunderground v.1.15,2013-02-28 19:20:00,
2013-02-28 13:25:00,31.7,30.9,30.11,NW,325,5.0,5.0,97,0.00,,,0.03,Wunderground v.1.15,2013-02-28 19:25:00,
2013-02-28 13:35:00,31.8,31.0,30.11,NNW,329,4.0,5.0,97,0.00,,,0.03,Wunderground v.1.15,2013-02-28 19:35:00,
2013-02-28 13:45:00,31.7,30.9,30.11,NNW,333,4.0,5.0,97,0.00,,,0.03,Wunderground v.1.15,2013-02-28 19:45:00,
2013-02-28 13:50:00,31.7,30.9,30.12,NNW,341,4.0,10.0,97,0.00,,,0.03,Wunderground v.1.15,2013-02-28 19:50:00,
2013-02-28 13:55:00,31.6,30.8,30.12,NNE,14,5.0,10.0,97,0.00,,,0.03,Wunderground v.1.15,2013-02-28 19:55:00,
2013-02-28 14:00:00,31.4,30.6,30.11,NNW,331,6.0,6.0,97,0.00,,,0.03,Wunderground v.1.15,2013-02-28 20:00:00,
2013-02-28 14:05:00,31.4,30.6,30.12,NW,324,6.0,6.0,97,0.00,,,0.03,Wunderground v.1.15,2013-02-28 20:05:00,
2013-02-28 14:15:00,31.4,30.9,30.12,NNW,336,6.0,8.0,98,0.00,,,0.03,Wunderground v.1.15,2013-02-28 20:15:00,
2013-02-28 14:20:00,31.4,30.6,30.12,NW,319,6.0,6.0,97,0.00,,,0.03,Wunderground v.1.15,2013-02-28 20:20:00,
2013-02-28 14:25:00,31.6,30.8,30.12,North,355,5.0,8.0,97,0.00,,,0.03,Wunderground v.1.15,2013-02-28 20:25:00,
2013-02-28 14:30:00,31.7,30.9,30.13,NNW,338,4.0,4.0,97,0.00,,,0.03,Wunderground v.1.15,2013-02-28 20:30:00,
2013-02-28 14:40:00,31.7,30.9,30.13,NW,326,4.0,4.0,97,0.00,,,0.03,Wunderground v.1.15,2013-02-28 20:40:00,
2013-02-28 14:45:00,31.7,30.9,30.13,NNW,333,3.0,4.0,97,0.00,,,0.03,Wunderground v.1.15,2013-02-28 20:45:00,
2013-02-28 14:50:00,31.9,31.1,30.13,NNW,329,2.0,3.0,97,0.00,,,0.03,Wunderground v.1.15,2013-02-28 20:50:00,
2013-02-28 14:55:00,31.8,31.0,30.13,WNW,300,3.0,5.0,97,0.00,,,0.03,Wunderground v.1.15,2013-02-28 20:55:00,
2013-02-28 15:00:00,31.8,31.0,30.13,NW,316,3.0,5.0,97,0.00,,,0.03,Wunderground v.1.15,2013-02-28 21:00:00,
2013-02-28 15:05:00,31.6,30.8,30.13,NNW,329,4.0,5.0,97,0.00,,,0.03,Wunderground v.1.15,2013-02-28 21:05:00,
2013-02-28 15:15:00,31.6,30.8,30.14,NW,307,4.0,10.0,97,0.00,,,0.03,Wunderground v.1.15,2013-02-28 21:15:00,
2013-02-28 15:20:00,31.4,30.6,30.14,NNW,336,5.0,5.0,97,0.00,,,0.03,Wunderground v.1.15,2013-02-28 21:20:00,
2013-02-28 15:25:00,31.5,30.7,30.14,NNW,336,5.0,5.0,97,0.00,,,0.03,Wunderground v.1.15,2013-02-28 21:25:00,
2013-02-28 15:35:00,31.5,30.5,30.14,NNW,340,3.0,4.0,96,0.00,,,0.03,Wunderground v.1.15,2013-02-28 21:35:00,
2013-02-28 15:40:00,31.6,30.6,30.14,NNW,338,3.0,5.0,96,0.00,,,0.03,Wunderground v.1.15,2013-02-28 21:40:00,
2013-02-28 15:45:00,31.6,30.6,30.14,NNW,347,3.0,5.0,96,0.00,,,0.03,Wunderground v.1.15,2013-02-28 21:45:00,
2013-02-28 15:50:00,31.6,30.6,30.14,NNW,327,3.0,3.0,96,0.00,,,0.03,Wunderground v.1.15,2013-02-28 21:50:00,
2013-02-28 15:59:00,31.7,30.4,30.14,NNW,342,3.0,3.0,95,0.00,,,0.03,Wunderground v.1.15,2013-02-28 21:59:00,
2013-02-28 16:05:00,31.7,30.4,30.14,North,351,2.0,3.0,95,0.00,,,0.03,Wunderground v.1.15,2013-02-28 22:05:00,
2013-02-28 16:15:00,31.8,30.3,30.14,NNW,344,3.0,4.0,94,0.00,,,0.03,Wunderground v.1.15,2013-02-28 22:15:00,
2013-02-28 16:25:00,31.6,30.1,30.14,NNW,329,3.0,3.0,94,0.00,,,0.03,Wunderground v.1.15,2013-02-28 22:25:00,
2013-02-28 16:35:00,31.6,29.8,30.15,NNW,344,3.0,5.0,93,0.00,,,0.03,Wunderground v.1.15,2013-02-28 22:35:00,
2013-02-28 16:40:00,31.5,29.7,30.15,NNW,348,3.0,3.0,93,0.00,,,0.03,Wunderground v.1.15,2013-02-28 22:40:00,
2013-02-28 16:45:00,31.5,29.7,30.15,NNW,337,3.0,3.0,93,0.00,,,0.03,Wunderground v.1.15,2013-02-28 22:45:00,
2013-02-28 16:50:00,31.4,29.6,30.15,NNW,344,3.0,7.0,93,0.00,,,0.03,Wunderground v.1.15,2013-02-28 22:50:00,
2013-02-28 16:55:00,31.3,29.5,30.15,NW,324,5.0,7.0,93,0.00,,,0.03,Wunderground v.1.15,2013-02-28 22:55:00,
2013-02-28 17:00:00,31.3,29.5,30.15,NNW,329,4.0,4.0,93,0.00,,,0.03,Wunderground v.1.15,2013-02-28 23:00:00,
2013-02-28 17:05:00,31.2,29.4,30.16,NW,315,3.0,7.0,93,0.00,,,0.03,Wunderground v.1.15,2013-02-28 23:05:00,
2013-02-28 17:15:00,31.1,29.3,30.16,NNW,330,4.0,4.0,93,0.00,,,0.03,Wunderground v.1.15,2013-02-28 23:15:00,
2013-02-28 17:20:00,31.0,29.2,30.17,NW,321,3.0,3.0,93,0.00,,,0.03,Wunderground v.1.15,2013-02-28 23:20:00,
2013-02-28 17:25:00,31.0,29.2,30.17,NW,321,3.0,4.0,93,0.00,,,0.03,Wunderground v.1.15,2013-02-28 23:25:00,
2013-02-28 17:35:00,31.0,28.9,30.17,NW,325,3.0,4.0,92,0.00,,,0.03,Wunderground v.1.15,2013-02-28 23:35:00,
2013-02-28 17:40:00,31.1,29.0,30.17,NNW,334,3.0,3.0,92,0.00,,,0.03,Wunderground v.1.15,2013-02-28 23:40:00,
2013-02-28 17:45:00,31.2,29.1,30.17,NNW,331,2.0,3.0,92,0.00,,,0.03,Wunderground v.1.15,2013-02-28 23:45:00,
2013-02-28 17:50:00,31.2,29.1,30.17,NNW,338,2.0,2.0,92,0.00,,,0.03,Wunderground v.1.15,2013-02-28 23:50:00,
2013-02-28 17:55:00,31.2,29.1,30.18,North,355,2.0,2.0,92,0.00,,,0.03,Wunderground v.1.15,2013-02-28 23:55:00,
2013-02-28 18:05:00,31.2,28.9,30.18,North,349,2.0,5.0,91,0.00,,,0.03,Wunderground v.1.15,2013-03-01 00:05:00,
2013-02-28 18:15:00,31.2,28.9,30.18,North,9,1.0,3.0,91,0.00,,,0.03,Wunderground v.1.15,2013-03-01 00:15:00,
2013-02-28 18:20:00,31.2,28.9,30.18,North,355,1.0,1.0,91,0.00,,,0.03,Wunderground v.1.15,2013-03-01 00:20:00,
2013-02-28 18:25:00,31.1,28.8,30.18,NNW,344,1.0,1.0,91,0.00,,,0.03,Wunderground v.1.15,2013-03-01 00:25:00,
2013-02-28 18:30:00,31.1,28.8,30.18,NNW,344,1.0,1.0,91,0.00,,,0.03,Wunderground v.1.15,2013-03-01 00:30:00,
2013-02-28 18:35:00,31.1,28.8,30.18,NNW,338,1.0,2.0,91,0.00,,,0.03,Wunderground v.1.15,2013-03-01 00:35:00,
2013-02-28 18:40:00,31.0,28.7,30.18,NNW,338,1.0,1.0,91,0.00,,,0.03,Wunderground v.1.15,2013-03-01 00:40:00,
2013-02-28 18:45:00,31.0,28.7,30.18,NNW,338,1.0,1.0,91,0.00,,,0.03,Wunderground v.1.15,2013-03-01 00:45:00,
2013-02-28 18:55:00,31.0,28.4,30.18,NNW,336,1.0,1.0,90,0.00,,,0.03,Wunderground v.1.15,2013-03-01 00:55:00,
2013-02-28 19:00:00,31.0,28.4,30.19,NNW,337,0.0,0.0,90,0.00,,,0.03,Wunderground v.1.15,2013-03-01 01:00:00,
2013-02-28 19:05:00,30.9,28.3,30.18,NNW,337,1.0,1.0,90,0.00,,,0.03,Wunderground v.1.15,2013-03-01 01:05:00,
2013-02-28 19:15:00,30.9,28.3,30.19,North,350,1.0,4.0,90,0.00,,,0.03,Wunderground v.1.15,2013-03-01 01:15:00,
2013-02-28 19:20:00,30.8,28.2,30.18,NNW,338,1.0,1.0,90,0.00,,,0.03,Wunderground v.1.15,2013-03-01 01:20:00,
2013-02-28 19:30:00,30.7,28.1,30.19,NNW,344,1.0,1.0,90,0.00,,,0.03,Wunderground v.1.15,2013-03-01 01:30:00,
2013-02-28 19:35:00,30.7,27.8,30.19,North,9,1.0,2.0,89,0.00,,,0.03,Wunderground v.1.15,2013-03-01 01:35:00,
2013-02-28 19:40:00,30.6,27.7,30.18,NNW,342,2.0,2.0,89,0.00,,,0.03,Wunderground v.1.15,2013-03-01 01:40:00,
2013-02-28 19:45:00,30.6,27.7,30.18,NNW,348,2.0,2.0,89,0.00,,,0.03,Wunderground v.1.15,2013-03-01 01:45:00,
2013-02-28 19:55:00,30.6,27.7,30.19,NNW,339,1.0,1.0,89,0.00,,,0.03,Wunderground v.1.15,2013-03-01 01:55:00,
2013-02-28 20:00:00,30.5,27.4,30.19,NNW,341,1.0,1.0,88,0.00,,,0.03,Wunderground v.1.15,2013-03-01 02:00:00,
2013-02-28 20:05:00,30.5,27.4,30.19,NNW,340,2.0,6.0,88,0.00,,,0.03,Wunderground v.1.15,2013-03-01 02:05:00,
2013-02-28 20:15:00,30.4,27.3,30.19,North,355,2.0,4.0,88,0.00,,,0.03,Wunderground v.1.15,2013-03-01 02:15:00,
2013-02-28 20:20:00,30.3,27.2,30.19,North,350,1.0,4.0,88,0.00,,,0.03,Wunderground v.1.15,2013-03-01 02:20:00,
2013-02-28 20:25:00,30.2,27.1,30.19,North,350,2.0,4.0,88,0.00,,,0.03,Wunderground v.1.15,2013-03-01 02:25:00,
2013-02-28 20:30:00,30.2,27.3,30.19,NNW,344,1.0,1.0,89,0.00,,,0.03,Wunderground v.1.15,2013-03-01 02:30:00,
2013-02-28 20:40:00,30.2,27.3,30.19,North,350,0.0,0.0,89,0.00,,,0.03,Wunderground v.1.15,2013-03-01 02:40:00,
2013-02-28 20:45:00,30.1,27.3,30.19,NNE,24,1.0,1.0,89,0.00,,,0.03,Wunderground v.1.15,2013-03-01 02:45:00,
2013-02-28 20:50:00,30.1,27.3,30.19,North,355,1.0,1.0,89,0.00,,,0.03,Wunderground v.1.15,2013-03-01 02:50:00,
2013-02-28 21:00:00,30.0,26.9,30.20,North,355,1.0,2.0,88,0.00,,,0.03,Wunderground v.1.15,2013-03-01 03:00:00,
2013-02-28 21:05:00,30.0,26.9,30.20,NNW,338,1.0,3.0,88,0.00,,,0.03,Wunderground v.1.15,2013-03-01 03:05:00,
2013-02-28 21:15:00,29.9,26.8,30.20,NNW,348,1.0,3.0,88,0.00,,,0.03,Wunderground v.1.15,2013-03-01 03:15:00,
2013-02-28 21:20:00,29.9,26.8,30.20,North,360,1.0,1.0,88,0.00,,,0.03,Wunderground v.1.15,2013-03-01 03:20:00,
2013-02-28 21:25:00,29.9,26.8,30.20,North,5,1.0,1.0,88,0.00,,,0.03,Wunderground v.1.15,2013-03-01 03:25:00,
2013-02-28 21:35:00,29.7,26.6,30.20,North,360,0.0,0.0,88,0.00,,,0.03,Wunderground v.1.15,2013-03-01 03:35:00,
2013-02-28 21:40:00,29.7,26.9,30.20,NNE,26,0.0,0.0,89,0.00,,,0.03,Wunderground v.1.15,2013-03-01 03:40:00,
2013-02-28 21:45:00,29.6,26.8,30.20,North,10,0.0,0.0,89,0.00,,,0.03,Wunderground v.1.15,2013-03-01 03:45:00,
2013-02-28 21:54:00,29.4,26.6,30.20,ESE,117,0.0,5.0,89,0.00,,,0.03,Wunderground v.1.15,2013-03-01 03:54:00,
2013-02-28 22:00:00,29.2,26.4,30.20,ESE,105,0.0,0.0,89,0.00,,,0.03,Wunderground v.1.15,2013-03-01 04:00:00,
2013-02-28 22:05:00,29.1,26.3,30.20,ESE,105,0.0,0.0,89,0.00,,,0.03,Wunderground v.1.15,2013-03-01 04:05:00,
2013-02-28 22:15:00,28.9,26.1,30.21,ESE,105,0.0,0.0,89,0.00,,,0.03,Wunderground v.1.15,2013-03-01 04:15:00,
2013-02-28 22:25:00,28.8,26.2,30.21,ENE,78,0.0,0.0,90,0.00,,,0.03,Wunderground v.1.15,2013-03-01 04:25:00,
2013-02-28 22:30:00,28.7,26.1,30.21,NE,37,0.0,0.0,90,0.00,,,0.03,Wunderground v.1.15,2013-03-01 04:30:00,
2013-02-28 22:35:00,28.6,26.0,30.21,ENE,57,0.0,0.0,90,0.00,,,0.03,Wunderground v.1.15,2013-03-01 04:35:00,
2013-02-28 22:40:00,28.5,25.9,30.21,ENE,58,0.0,0.0,90,0.00,,,0.03,Wunderground v.1.15,2013-03-01 04:40:00,
2013-02-28 22:45:00,28.5,26.2,30.21,ENE,77,0.0,0.0,91,0.00,,,0.03,Wunderground v.1.15,2013-03-01 04:45:00,
2013-02-28 22:50:00,28.4,26.1,30.21,ENE,77,0.0,0.0,91,0.00,,,0.03,Wunderground v.1.15,2013-03-01 04:50:00,
2013-02-28 22:55:00,28.3,26.0,30.21,ENE,76,0.0,0.0,91,0.00,,,0.03,Wunderground v.1.15,2013-03-01 04:55:00,
2013-02-28 23:00:00,28.2,25.9,30.22,ENE,74,0.0,1.0,91,0.00,,,0.03,Wunderground v.1.15,2013-03-01 05:00:00,
2013-02-28 23:05:00,28.1,25.5,30.22,East,92,1.0,2.0,90,0.00,,,0.03,Wunderground v.1.15,2013-03-01 05:05:00,
2013-02-28 23:10:00,27.8,25.2,30.22,East,101,2.0,5.0,90,0.00,,,0.03,Wunderground v.1.15,2013-03-01 05:10:00,
2013-02-28 23:20:00,27.1,24.0,30.22,ENE,69,2.0,2.0,88,0.00,,,0.03,Wunderground v.1.15,2013-03-01 05:20:00,
2013-02-28 23:25:00,27.0,23.9,30.22,ESE,110,2.0,2.0,88,0.00,,,0.03,Wunderground v.1.15,2013-03-01 05:25:00,
2013-02-28 23:30:00,26.9,23.8,30.22,ESE,106,1.0,1.0,88,0.00,,,0.03,Wunderground v.1.15,2013-03-01 05:30:00,
2013-02-28 23:35:00,26.8,23.7,30.22,East,88,1.0,2.0,88,0.00,,,0.03,Wunderground v.1.15,2013-03-01 05:35:00,
2013-02-28 23:45:00,26.7,23.6,30.22,East,100,1.0,1.0,88,0.00,,,0.03,Wunderground v.1.15,2013-03-01 05:45:00,
2013-02-28 23:50:00,26.6,23.5,30.22,North,5,0.0,0.0,88,0.00,,,0.03,Wunderground v.1.15,2013-03-01 05:50:00,
2013-02-28 23:55:00,26.6,23.5,30.22,NE,53,0.0,0.0,88,0.00,,,0.03,Wunderground v.1.15,2013-03-01 05:55:00,